Tracking 29892 objects as of 21-Nov-2024
HD Live streaming from Space Station
objects crossing your sky now

STARLINK-31717

Track STARLINK-31717 now!
10-day predictions
STARLINK-31717 is classified as:


NORAD ID: 59385
Int'l Code: 2024-062M
Perigee: 481.6 km
Apogee: 483.3 km
Inclination: 53.2 °
Period: 94.1 minutes
Semi major axis: 6853 km
RCS: Unknown
Launch date: April 2, 2024
Source: United States (US)
Launch site: AIR FORCE WESTERN TEST RANGE (AFWTR)
Your satellite tracking list
Your tracking list is empty




NASA's NSSDC Master Catalog

Two Line Element Set (TLE):
1 59385U 24062M   24325.91668981  .00052026  00000-0  17584-2 0  9990
2 59385  53.1605 296.4866 0001267  94.3318 200.9875 15.30163851  5657
Source of the keplerian elements: AFSPC